Regional Weather Roundup
Issued by NWS State College, PA

Home | Current Version | Previous Version | Text Only | Print | Product List | Glossary On
Versions: 1 2 3 4 5 6 7 8 9 10 11 12 13 14 15 16 17 18 19 20 21 22 23 24 25 26 27 28 29 30 31 32 33 34 35 36 37 38 39 40 41 42 43 44 45 46 47 48 49 50
000
ASUS41 KCTP 240910
RWRCTP

REGIONAL WEATHER ROUNDUP
NATIONAL WEATHER SERVICE STATE COLLEGE PA
500 AM EDT TUE OCT 24 2017

Note: "fair" indicates few or no clouds below 12,000 feet with no
significant weather and/or obstructions to visibility.

* = STATION THAT DOES NOT REPORT PRECIPITATION /E.G. RAIN...SNOW...ETC/
    THUNDER OR FOG.

PAZ002>004-007>009-013>016-020>023-029>032-241000-
WESTERN PENNSYLVANIA

CITY           SKY/WX    TMP DP  RH WIND       PRES   REMARKS
ERIE           LGT RAIN  55  51  86 W17G32    29.58R FOG
MEADVILLE      LGT RAIN  52  51  97 SW16G24   29.62R
FRANKLIN*      CLOUDY    54  50  86 S16G24    29.63R
NEW CASTLE     LGT RAIN  54  54 100 W10       29.66R
BEAVER COUNTY  NOT AVBL
BUTLER*        CLOUDY    54  50  86 SW8       29.67R
PITTSBURGH INT CLOUDY    55  51  86 SW9       29.67R
PITTSBURGH     CLOUDY    55  49  80 SW14G25   29.68R
INDIANA*       CLOUDY    55  54  94 SW9G16    29.71S
LATROBE        CLOUDY    55  54  94 SW16G22   29.70R
WASHINGTON CO* CLOUDY    54  50  86 SW12      29.72R
$$

PAZ004>006-010>012-017>019-024>028-033>037-041-042-045-046-049>053-241000-
CENTRAL PENNSYLVANIA

CITY           SKY/WX    TMP DP  RH WIND       PRES   REMARKS
BRADFORD       CLOUDY    54  52  93 SW12G20   29.65R
DUBOIS         CLOUDY    54  50  86 SW8       29.66S
CLEARFIELD     CLOUDY    56  53  90 SW8       29.69R
JOHNSTOWN      PTCLDY    53  49  86 SW14      29.70R
ALTOONA        PTCLDY    58  51  78 S5        29.71R
STATE COLLEGE  MOCLDY    57  54  88 SW13      29.69R
WILLIAMSPORT   HVY RAIN  67  65  93 N5        29.62F FOG
SELINSGROVE    HVY RAIN  66  65  96 SW9G18    29.64F FOG
FT INDIANTOWN  LGT RAIN  68  68 100 SE14G20   29.67F
CAPITAL CITY   LGT RAIN  70  64  81 SW15G22   29.68R
HARRISBURG     LGT RAIN  69  67  93 S10G28    29.67S
YORK           LGT RAIN  66  65  96 SW13G20   29.71R FOG
$$

PAZ038>040-043-044-047-048-054-055-060>062-067>071-241000-
EASTERN PENNSYLVANIA

CITY           SKY/WX    TMP DP  RH WIND       PRES   REMARKS
SCRANTON       CLOUDY    70  63  78 S10G25    29.71F
MOUNT POCONO   LGT RAIN  63  63 100 S20G33    29.80F
ALLENTOWN      MOCLDY    70  64  81 SE14G23   29.77S
QUAKERTOWN*    PTSUNNY   68  66  94 S8G17     29.79F
READING        CLOUDY    71  67  87 SE10G18   29.72S
LANCASTER      LGT RAIN  70  67  90 S18G25    29.71S
COATESVILLE    CLOUDY    68  68 100 SE10      29.77F FOG
POTTSTOWN      CLOUDY    71  66  84 SE8G20    29.77F
BLUE BELL      CLOUDY    70  64  83 S12G21    29.80R
DOYLESTOWN     CLOUDY    71  64  78 VRB7G20   29.79F
WILLOW GROVE   NOT AVBL
NORTH PHILA    CLOUDY    75  65  70 S14G22    29.80F
PHILADELPHIA   CLOUDY    74  65  73 S10G24    29.77F
$$



USA.gov is the U.S. government's official web portal to all federal, state and local government web resources and services.